{"data":{"norad_id":14129,"intl_designator":"1983-058B","name":"PHASE 3B (AO-10)","alt_names":[],"object_type":"PAYLOAD","status":"ACTIVE","operator":null,"country":"GER","launch_date":"1983-06-16","launch_site_code":"FRGUI","launch_vehicle":null,"mission":null,"orbit_class":"UNKNOWN","rcs_meters":1.0067,"size_class":null,"mass_kg":null,"dimensions":null,"purposes":["comms"],"wikipedia_slug":null,"has_3d_model":false,"image_url":null,"decayed_at":null,"tle_current":{"epoch":"2026-05-20T04:55:53.101344Z","epoch_age_seconds":496197,"freshness":"STALE","line1":"1 14129U 83058B   26140.20547571 -.00000279  00000+0  00000+0 0  9992","line2":"2 14129  25.8960 224.2131 6020564 107.9633 323.3103  2.05872908294917","mean_motion":2.05872908,"eccentricity":0.6020564,"inclination_deg":25.896,"raan_deg":224.2131,"arg_perigee_deg":107.9633,"mean_anomaly_deg":323.3103,"bstar":0,"rev_number":29491,"period_min":699.46065948609,"perigee_km":4008.8733990231,"apogee_km":35438.282428837,"semimajor_km":26101.71491393,"source":"CELESTRAK","updated_at":"2026-05-25T13:38:23.251319Z"}}}